Regional Weather Roundup
Issued by NWS

Home | Current Version | Previous Version | Text Only | Print | Product List | Glossary Off
Versions: 1 2 3 4 5 6 7 8 9 10 11 12 13 14 15 16 17 18 19 20 21 22 23 24 25 26 27 28 29 30 31 32 33 34 35 36 37 38 39 40 41 42 43 44 45 46 47 48 49 50

319
ASUS45 KABQ 051510
RWRNM
NEW MEXICO REGIONAL WEATHER ROUNDUP
NATIONAL WEATHER SERVICE ALBUQUERQUE NM
800 AM MST FRI FEB 05 2016

NOTE: "FAIR" MEANS FEW OR NO CLOUDS BELOW 12,000 FEET AGL WITH NO
       SIGNIFICANT WEATHER OR OBSTRUCTIONS TO VISION.

      THIS PRODUCT IS RELEASED AS TWO VERSIONS.  ONE VERSION NEAR
      THE TOP OF THE HOUR CONTAINING PRELIMINARY DATA FROM ALBUQUERQUE
      AND OTHER STATIONS.  A FINAL VERSION WITH ADDITIONAL DATA IS
      ISSUED ABOUT 10 MINUTES AFTER THE HOUR.

NMZ501-503-504-510>518-051600-
NORTHWEST PLATEAU/NORTHCENTRAL MOUNTAINS

CITY           SKY/WX    TMP DP  RH WIND       PRES   REMARKS
FARMINGTON     CLOUDY    11   5  77 CALM      30.42R
LOS ALAMOS     CLOUDY    14   9  81 CALM      30.29R
SANTA FE       SUNNY     18   9  68 NW12      30.31R WCI   5
TAOS             N/A    N/A N/A N/A MISG        N/A
ANGEL FIRE     FAIR      -9 -13  82 CALM      30.22R

$$
NMZ402-403-502-505>509-051600-
WESTCENTRAL MOUNTAINS/SOUTHWEST MOUNTAINS

CITY           SKY/WX    TMP DP  RH WIND       PRES   REMARKS
GALLUP         CLEAR      9   5  84 E5        30.42R WCI   1
GRANTS         CLEAR     17  11  76 N7        30.39R WCI   8
SILVER CITY      N/A     28  12  50 NW7       30.32R WCI  21

$$
NMZ407-409-411-412-051600-
SOUTHERN DESERTS

CITY           SKY/WX    TMP DP  RH WIND       PRES   REMARKS
LORDSBURG      FAIR      21  14  73 CALM      30.33R
DEMING         SUNNY     23  11  60 CALM      30.33R
LAS CRUCES     SUNNY     33   6  31 N7        30.32R WCI  26
HOLLOMAN AFB   CLOUDY    29   6  37 N12       30.32R WCI  19
ALAMOGORDO     CLOUDY    32   5  32 N16       30.31S WCI  21
T OR C         SUNNY     25   5  42 N5        30.34R WCI  19

$$
NMZ519>523-051600-
CENTRAL VALLEYS/CENTRAL HIGHLANDS

CITY           SKY/WX    TMP DP  RH WIND       PRES   REMARKS
ALBUQUERQUE    PTCLDY    24  12  60 N17       30.38R WCI  11
DOUBLE EAGLE   PTCLDY    21  12  68 NW17G24   30.35R WCI   7
MORIARTY ARPT  FAIR      20  13  72 NW10      30.32R WCI   9
CLINES CORNERS SUNNY     16   8  71 NW21      30.21R WCI  -1
BELEN          FAIR      23  14  67 N7        30.39R WCI  15
SOCORRO        FAIR      22  10  58 CALM      30.39R

$$
NMZ524>526-539-540-051600-
SOUTHCENTRAL MOUNTAINS

CITY           SKY/WX    TMP DP  RH WIND       PRES   REMARKS
RUIDOSO        CLOUDY    23   9  54 NW10G25   30.27R WCI  12

$$
NMZ527>531-051600-
NORTHEAST HIGHLANDS/NORTHEAST PLAINS

CITY           SKY/WX    TMP DP  RH WIND       PRES   REMARKS
LAS VEGAS      SUNNY     21   4  47 N10       30.20R WCI  10
RATON          LGT SNOW  23  18  81 VRB5      30.21R WCI  17
CLAYTON        MOSUNNY   27  14  58 N24G35    30.18R WCI  12

$$
NMZ532>537-051600-
EASTCENTRAL PLAINS

CITY           SKY/WX    TMP DP  RH WIND       PRES   REMARKS
TUCUMCARI      MOSUNNY   33  14  45 NW10      30.21R WCI  25
CANNON AFB     CLOUDY    25  13  59 NW8       30.21R WCI  16
CLOVIS AIRPORT CLOUDY    27  10  50 W12       30.21R WCI  16

$$
NMZ028-029-538-051600-
SOUTHEAST PLAINS

CITY           SKY/WX    TMP DP  RH WIND       PRES   REMARKS
ROSWELL        CLOUDY    35  14  42 VRB3      30.26R
ARTESIA        CLOUDY    28  10  47 N3        30.29R
CARLSBAD       SUNNY     30  13  49 NW5       30.27R WCI  25
HOBBS          SUNNY     32  18  55 SW6       30.26R WCI  26


$$




USA.gov is the U.S. government's official web portal to all federal, state and local government web resources and services.